Overview Statistics Trail Chart Weather Telemetry Raw packets
 

This is the latest recevied weather packets stored in our database for station/object W0WFX-2. If no packets are shown the sender has not sent any weather packets the latest 10 day(s).

<< 11 12 13 14 15 16 17 >>
Time Temp. Humidity Pressure Rain* Wind** Luminosity Snow
1788563883 35° C 43% 1012.4 hPa 0 mm - 36 W/m² -
1788563559 35.56° C 43% 1012.3 hPa 0 mm - 38 W/m² -
1788563259 35.56° C 43% 1012.1 hPa 0 mm - 38 W/m² -
1788562953 35.56° C 44% 1012.3 hPa 0 mm - 46 W/m² -
1788562652 35.56° C 43% 1012.3 hPa 0 mm - 41 W/m² -
1788562346 35.56° C 42% 1012.3 hPa 0 mm - 41 W/m² -
1788562045 35.56° C 42% 1012.2 hPa 0 mm - 44 W/m² -
1788561741 35.56° C 42% 1012.3 hPa 0 mm - 47 W/m² -
1788561440 36.11° C 41% 1012.3 hPa 0 mm - 45 W/m² -
1788561135 36.11° C 42% 1012.3 hPa 0 mm - 46 W/m² -
1788560831 36.67° C 42% 1012.2 hPa 0 mm - 55 W/m² -
1788560527 36.11° C 41% 1012.1 hPa 0 mm - 288 W/m² -
1788560225 36.11° C 41% 1012.4 hPa 0 mm - 305 W/m² -
1788559921 36.67° C 41% 1012.4 hPa 0 mm - 324 W/m² -
1788559616 36.67° C 41% 1012.2 hPa 0 mm - 338 W/m² -
1788559311 36.67° C 41% 1012.5 hPa 0 mm - 354 W/m² -
1788559010 36.67° C 41% 1012.4 hPa 0 mm - 365 W/m² -
1788558706 37.22° C 42% 1012.3 hPa 0 mm - 382 W/m² -
1788558401 36.67° C 41% 1012.6 hPa 0 mm - 397 W/m² -
1788558097 36.67° C 40% 1012.5 hPa 0 mm - 411 W/m² -
1788557795 36.67° C 42% 1012.5 hPa 0 mm - 59 W/m² -
1788557492 36.67° C 42% 1012.6 hPa 0 mm - 66 W/m² -
1788557192 36.11° C 44% 1012.5 hPa 0 mm - 61 W/m² -
1788556887 36.11° C 41% 1012.4 hPa 0 mm - 67 W/m² -
1788556586 36.11° C 42% 1012.6 hPa 0 mm - 62 W/m² -

* Rain latest hour (hover to see other rain measurements)
** Current wind speed in m/s (hover to see current wind gust speed)